Block Island, RI

10:53 AM EDT on April 28, 2017 (GMT -0400)
Block Island State

Weather History for KBID - April, 2014

Change the Weather History Date:

Friday, April 11, 2014

  Actual Average Record
Temperature  
Mean Temperature 50 °F -  
Max Temperature 55 °F 50 °F 70 °F (1955)
Min Temperature 44 °F 37 °F 27 °F (1976)
Degree Days  
Heating Degree Days 16    
Moisture  
Dew Point 40 °F    
Average Humidity 72    
Maximum Humidity 81    
Minimum Humidity 62    
Precipitation  
Precipitation 0.00 in - - ()
Sea Level Pressure  
Sea Level Pressure 30.01 in    
Wind  
Wind Speed 17 mph (SW)    
Max Wind Speed 21 mph    
Max Gust Speed 28 mph    
Visibility 9 miles    
Events      
Averages and records for this station are not official NWS values.
T = Trace of Precipitation, MM = Missing Value Source: NWS Daily Summary

Daily Weather History Graph

Daily Weather History Graph

Search for Another Location

Airport or City:

Trip Planner

Search our weather history database for the weather conditions in past years. The results will help you decide how hot, cold, wet, or windy it might be!

Date:

Astronomy

Apr. 11, 2014 Rise Set
Actual Time 6:13 AM EDT 7:22 PM EDT
Civil Twilight 5:45 AM EDT 7:50 PM EDT
Nautical Twilight 5:11 AM EDT 8:24 PM EDT
Astronomical Twilight 4:35 AM EDT 8:59 PM EDT
Moon 3:57 PM EDT (4/11) 4:08 AM EDT (4/11)
Length of Visible Light 14h 05m
Length of Day
13h 08m
Waxing Gibbous, 87% of the Moon is Illuminated
Apr 11
Waxing Gibbous
Apr 15
Full
Apr 22
Last Quarter
Apr 29
New
May 6
First Quarter

Hourly Weather History & Observations

Time (EDT) Temp. Windchill Dew Point Humidity Pressure Visibility Wind Dir Wind Speed Gust Speed Precip Events Conditions
12:15 AM 44.6 °F 36.6 °F 39.2 °F 81% 30.07 in 10.0 mi SSW 19.6 mph 24.2 mph N/A   Clear
12:35 AM 44.6 °F 37.4 °F 39.2 °F 81% 30.07 in 10.0 mi SSW 16.1 mph 21.9 mph N/A   Clear
12:55 AM 46.4 °F 39.2 °F 39.2 °F 76% 30.07 in 10.0 mi SSW 18.4 mph 24.2 mph N/A   Clear
1:15 AM 46.4 °F 40.4 °F 37.4 °F 71% 30.06 in 10.0 mi SSW 13.8 mph 24.2 mph N/A   Clear
1:35 AM 46.4 °F 38.7 °F 37.4 °F 71% 30.05 in 10.0 mi SSW 20.7 mph 27.6 mph N/A   Clear
1:55 AM 46.4 °F 39.0 °F 37.4 °F 71% 30.05 in 10.0 mi SSW 19.6 mph 25.3 mph N/A   Scattered Clouds
2:15 AM 46.4 °F 39.5 °F 37.4 °F 71% 30.04 in 10.0 mi SSW 17.3 mph 24.2 mph N/A   Partly Cloudy
2:35 AM 44.6 °F 37.4 °F 37.4 °F 76% 30.03 in 10.0 mi SSW 16.1 mph 21.9 mph N/A   Partly Cloudy
2:55 AM 44.6 °F 37.4 °F 37.4 °F 76% 30.02 in 10.0 mi SSW 16.1 mph 20.7 mph N/A   Clear
3:15 AM 46.4 °F 39.5 °F 37.4 °F 71% 30.01 in 10.0 mi SSW 17.3 mph 23.0 mph N/A   Mostly Cloudy
3:35 AM 46.4 °F 39.5 °F 37.4 °F 71% 30.00 in 10.0 mi SSW 17.3 mph 24.2 mph N/A   Mostly Cloudy
3:55 AM 46.4 °F 39.8 °F 39.2 °F 76% 30.00 in 10.0 mi SSW 16.1 mph 21.9 mph N/A   Partly Cloudy
4:15 AM 48.2 °F - 39.2 °F 71% 29.99 in 10.0 mi SSW 17.3 mph 25.3 mph N/A   Clear
4:35 AM 48.2 °F - 39.2 °F 71% 29.98 in 10.0 mi SSW 20.7 mph 24.2 mph N/A   Clear
4:55 AM 48.2 °F - 39.2 °F 71% 29.98 in 10.0 mi SSW 19.6 mph 24.2 mph N/A   Clear
5:15 AM 48.2 °F - 39.2 °F 71% 29.99 in 10.0 mi SSW 18.4 mph 23.0 mph N/A   Clear
5:35 AM 46.4 °F 40.1 °F 39.2 °F 76% 29.98 in 10.0 mi SSW 15.0 mph 21.9 mph N/A   Clear
5:55 AM 46.4 °F 39.2 °F 39.2 °F 76% 29.98 in 10.0 mi SSW 18.4 mph 23.0 mph N/A   Clear
6:15 AM 46.4 °F 39.2 °F 39.2 °F 76% 29.99 in 9.0 mi SSW 18.4 mph 24.2 mph N/A   Clear
6:35 AM 46.4 °F 39.5 °F 39.2 °F 76% 30.00 in 8.0 mi SW 17.3 mph 21.9 mph N/A   Clear
6:55 AM 46.4 °F 39.8 °F 39.2 °F 76% 30.01 in 8.0 mi SW 16.1 mph 23.0 mph N/A   Clear
7:15 AM 46.4 °F 39.5 °F 39.2 °F 76% 30.02 in 8.0 mi SW 17.3 mph 24.2 mph N/A   Clear
7:35 AM 48.2 °F - 39.2 °F 71% 30.03 in 8.0 mi SW 17.3 mph 23.0 mph N/A   Clear
7:55 AM 48.2 °F - 39.2 °F 71% 30.03 in 7.0 mi SW 18.4 mph - N/A   Clear
8:15 AM 48.2 °F - 39.2 °F 71% 30.02 in 7.0 mi SW 18.4 mph 24.2 mph N/A   Clear
8:35 AM 48.2 °F - 41.0 °F 76% 30.03 in 7.0 mi SW 16.1 mph 27.6 mph N/A   Clear
8:55 AM 48.2 °F - 39.2 °F 71% 30.03 in 7.0 mi SW 18.4 mph 26.5 mph N/A   Clear
9:15 AM 50.0 °F - 41.0 °F 71% 30.03 in 8.0 mi SW 20.7 mph 26.5 mph N/A   Clear
9:35 AM 50.0 °F - 41.0 °F 71% 30.03 in 8.0 mi SW 18.4 mph 26.5 mph N/A   Clear
9:55 AM 50.0 °F - 41.0 °F 71% 30.03 in 8.0 mi SW 19.6 mph 26.5 mph N/A   Clear
10:15 AM 51.8 °F - 41.0 °F 67% 30.04 in 8.0 mi SW 18.4 mph 25.3 mph N/A   Clear
10:35 AM 51.8 °F - 41.0 °F 67% 30.04 in 8.0 mi SW 18.4 mph 25.3 mph N/A   Clear
10:55 AM 53.6 °F - 42.8 °F 67% 30.03 in 8.0 mi SW 16.1 mph - N/A   Clear
11:15 AM 51.8 °F - 41.0 °F 67% 30.03 in 9.0 mi SW 16.1 mph - N/A   Clear
11:35 AM 51.8 °F - 41.0 °F 67% 30.03 in 8.0 mi SW 17.3 mph 21.9 mph N/A   Clear
11:55 AM 53.6 °F - 42.8 °F 67% 30.03 in 8.0 mi WSW 19.6 mph - N/A   Clear
12:15 PM 53.6 °F - 42.8 °F 67% 30.03 in 9.0 mi SW 18.4 mph - N/A   Clear
12:35 PM 51.8 °F - 42.8 °F 71% 30.02 in 8.0 mi SW 16.1 mph - N/A   Clear
12:55 PM 51.8 °F - 41.0 °F 67% 30.02 in 8.0 mi SW 18.4 mph 24.2 mph N/A   Clear
1:15 PM 53.6 °F - 42.8 °F 67% 30.01 in 9.0 mi SW 19.6 mph - N/A   Clear
1:35 PM 53.6 °F - 42.8 °F 67% 30.01 in 9.0 mi SW 16.1 mph - N/A   Clear
1:55 PM 53.6 °F - 42.8 °F 67% 30.00 in 10.0 mi SW 15.0 mph - N/A   Clear
2:15 PM 55.4 °F - 42.8 °F 63% 29.99 in 10.0 mi SW 15.0 mph - N/A   Clear
2:35 PM 53.6 °F - 41.0 °F 62% 29.99 in 9.0 mi SW 15.0 mph - N/A   Clear
2:55 PM 53.6 °F - 41.0 °F 62% 29.99 in 10.0 mi SW 16.1 mph - N/A   Clear
3:15 PM 53.6 °F - 41.0 °F 62% 29.99 in 10.0 mi SW 17.3 mph - N/A   Clear
3:35 PM 51.8 °F - 41.0 °F 67% 29.98 in 9.0 mi SSW 18.4 mph - N/A   Clear
3:55 PM 51.8 °F - 41.0 °F 67% 29.98 in 9.0 mi SSW 17.3 mph 24.2 mph N/A   Clear
4:15 PM 51.8 °F - 41.0 °F 67% 29.98 in 8.0 mi SSW 16.1 mph 21.9 mph N/A   Clear
4:35 PM 48.2 °F - 41.0 °F 76% 29.98 in 8.0 mi SSW 16.1 mph - N/A   Clear
4:55 PM 50.0 °F - 41.0 °F 71% 29.97 in 8.0 mi SSW 15.0 mph 24.2 mph N/A   Clear
5:15 PM 48.2 °F - 41.0 °F 76% 29.98 in 8.0 mi SSW 18.4 mph - N/A   Clear
5:35 PM 48.2 °F - 41.0 °F 76% 29.98 in 7.0 mi SW 17.3 mph 25.3 mph N/A   Clear
5:55 PM 48.2 °F - 41.0 °F 76% 29.99 in 8.0 mi SW 17.3 mph 25.3 mph N/A   Clear
6:15 PM 50.0 °F - 41.0 °F 71% 29.99 in 10.0 mi WSW 16.1 mph 23.0 mph N/A   Clear
6:35 PM 50.0 °F - 41.0 °F 71% 29.98 in 10.0 mi SW 15.0 mph - N/A   Clear
6:55 PM 48.2 °F - 41.0 °F 76% 29.98 in 10.0 mi SW 13.8 mph - N/A   Clear
7:15 PM 50.0 °F - 41.0 °F 71% 29.99 in 10.0 mi SW 16.1 mph 20.7 mph N/A   Scattered Clouds
7:35 PM 51.8 °F - 41.0 °F 67% 29.99 in 10.0 mi SW 13.8 mph - N/A   Partly Cloudy
7:55 PM 50.0 °F - 39.2 °F 66% 30.00 in 10.0 mi West 13.8 mph - N/A   Partly Cloudy
8:15 PM 48.2 °F - 39.2 °F 71% 30.01 in 10.0 mi WSW 11.5 mph - N/A   Clear
8:35 PM 48.2 °F - 39.2 °F 71% 30.01 in 10.0 mi WSW 9.2 mph - N/A   Clear
8:55 PM 46.4 °F 42.4 °F 39.2 °F 76% 30.01 in 10.0 mi SSW 8.1 mph - N/A   Clear
9:15 PM 46.4 °F 40.7 °F 39.2 °F 76% 30.03 in 10.0 mi SSW 12.7 mph - N/A   Clear
9:35 PM 46.4 °F 40.7 °F 39.2 °F 76% 30.02 in 10.0 mi SW 12.7 mph - N/A   Partly Cloudy
9:55 PM 46.4 °F 40.7 °F 39.2 °F 76% 30.02 in 10.0 mi SW 12.7 mph - N/A   Partly Cloudy
10:15 PM 46.4 °F 42.4 °F 39.2 °F 76% 30.02 in 10.0 mi SW 8.1 mph - N/A   Scattered Clouds
10:35 PM 46.4 °F 41.1 °F 39.2 °F 76% 30.03 in 9.0 mi SSW 11.5 mph - N/A   Scattered Clouds
10:55 PM 46.4 °F 41.5 °F 39.2 °F 76% 30.02 in 10.0 mi SW 10.4 mph - N/A   Mostly Cloudy
11:15 PM 46.4 °F 41.1 °F 41.0 °F 81% 30.02 in 10.0 mi SW 11.5 mph - N/A   Scattered Clouds
11:35 PM 48.2 °F - 41.0 °F 76% 30.01 in 10.0 mi SW 10.4 mph - N/A   Mostly Cloudy
11:55 PM 48.2 °F - 41.0 °F 76% 29.99 in 10.0 mi SW 6.9 mph - N/A   Overcast